CDT,Max TemperatureF,Mean TemperatureF,Min TemperatureF,Max Dew PointF,MeanDew PointF,Min DewpointF,Max Humidity, Mean Humidity, Min Humidity, Max Sea Level PressureIn, Mean Sea Level PressureIn, Min Sea Level PressureIn, Max VisibilityMiles, Mean VisibilityMiles, Min VisibilityMiles, Max Wind SpeedMPH, Mean Wind SpeedMPH, Max Gust SpeedMPH,PrecipitationIn, CloudCover, Events, WindDirDegrees
2013-9-1,95,82,68,73,70,68,100,73,46,29.96,29.90,29.85,10,8,2,13,4,20,0.00,0,,176
2013-9-2,96,83,70,80,73,70,100,75,49,29.99,29.92,29.88,10,6,0,18,3,33,0.19,1,Fog-Rain-Thunderstorm,269
2013-9-3,96,84,71,77,72,70,100,73,46,30.01,29.94,29.90,10,4,0,15,3,18,0.00,2,Fog,50
2013-9-4,97,83,69,74,69,65,100,68,35,30.10,30.04,29.98,10,9,4,10,4,16,0.00,0,,37
2013-9-5,97,82,66,71,66,59,93,63,33,30.13,30.08,30.04,10,10,5,9,2,18,0.00,1,,48
2013-9-6,97,82,66,75,68,63,100,67,34,30.13,30.07,30.00,10,6,0,9,2,18,0.00,0,Fog,104
2013-9-7,96,83,69,74,70,67,100,70,39,30.09,30.03,29.97,10,9,4,9,2,13,0.00,0,,85
2013-9-8,96,81,65,73,67,64,97,67,36,30.04,29.99,29.94,10,6,1,9,2,14,0.00,0,,111
2013-9-9,97,81,64,75,67,63,100,69,38,30.08,30.01,29.96,10,6,0,10,1,21,0.00,0,Fog,161
2013-9-10,97,83,68,75,70,66,94,67,40,30.15,30.09,30.04,10,6,1,20,3,23,0.59,2,Rain-Thunderstorm,6
2013-9-11,95,83,70,75,71,66,94,68,41,30.17,30.11,30.04,10,6,2,9,2,13,0.00,1,,70
2013-9-12,96,81,66,73,69,64,100,70,39,30.09,30.03,29.94,10,8,2,8,1,13,0.00,0,,340
2013-9-13,95,82,69,73,69,59,100,72,43,29.96,29.92,29.86,10,6,0,15,5,20,0.00,1,Fog,39
2013-9-14,88,73,57,59,57,52,93,61,29,30.04,30.00,29.96,10,10,10,12,6,15,0.00,0,,29
2013-9-15,93,75,56,67,61,54,100,68,36,30.10,30.05,30.01,10,10,6,12,3,15,0.00,0,,91
2013-9-16,95,80,65,73,68,64,93,66,39,30.13,30.08,30.03,10,9,5,10,2,15,0.00,0,,53
2013-9-17,96,81,65,69,65,61,100,67,33,30.13,30.06,29.99,10,8,2,9,2,13,0.00,0,,69
2013-9-18,93,79,65,72,68,63,93,71,49,30.10,30.05,29.99,10,10,9,12,5,23,0.00,0,,111
2013-9-19,95,82,68,74,71,67,100,73,46,30.08,30.02,29.94,10,8,1,25,6,32,0.60,2,Rain,137
2013-9-20,87,80,72,76,74,72,100,83,65,30.01,29.88,29.80,10,8,0,14,6,17,1.47,5,Fog-Rain-Thunderstorm,169
2013-9-21,80,72,63,72,68,57,100,83,66,29.87,29.83,29.79,10,7,2,16,8,21,0.77,6,Rain,10
2013-9-22,81,68,55,58,56,53,100,70,39,29.93,29.88,29.83,10,10,7,14,6,20,0.00,0,,27
2013-9-23,88,69,49,71,61,48,100,73,46,29.91,29.87,29.83,10,8,2,9,3,13,0.00,1,,74
2013-9-24,84,75,65,75,72,64,100,85,69,29.88,29.84,29.81,10,5,0,13,4,26,2.03,6,Fog-Rain-Thunderstorm,88
2013-9-25,87,74,60,70,65,60,100,71,42,29.87,29.83,29.80,10,5,0,8,2,,0.00,1,Fog,321
2013-9-26,88,73,58,68,61,57,100,70,40,29.98,29.91,29.84,10,4,0,8,2,12,0.00,1,Fog,80
2013-9-27,89,78,66,70,66,61,100,73,46,30.06,30.01,29.95,10,7,1,10,6,17,0.00,1,,114
2013-9-28,87,77,66,68,65,62,87,66,45,30.12,30.06,30.01,10,10,10,10,5,14,0.00,2,,133
2013-9-29,77,72,67,70,67,62,93,86,78,30.06,30.01,29.96,10,10,5,10,5,14,T,6,Rain,160
2013-9-30,86,77,68,72,69,66,100,80,59,29.98,29.95,29.91,10,10,9,13,6,16,T,4,,152